User: anonymous   Login
Location: Melbourne
(37.8170°S, 144.9670°E)
Time: 21:19:34
(UTC+11:00)
Language:

ADEOS Rocket - Orbit

View from above orbital plane
View from above orbital plane
View from above satellite
View from above satellite

Ground track
Ground track

The orbit data is extracted from the following two-line orbital elements,

1 24279U 96046C   17080.45997626 +.00000035 +00000-0 +87051-4 0  9996
2 24279 098.7437 035.2989 0300440 152.1570 355.1453 13.47077468012154
Epoch (UTC): 21 March 2017 11:02:21
Eccentricity: 0.0300440
inclination: 98.7437°
perigee height: 859 km
apogee height: 1307 km
right ascension of ascending node: 35.2989°
argument of perigee: 152.1570°
revolutions per day: 13.47077468
mean anomaly at epoch: 355.1453°
orbit number at epoch: 1215

The dashed part of the orbit path shows where the satellite is in the earth's shadow,  

DLR